CAPE
2471 2451 2358 2340 2426 2432 2583 2647 2687 2707 2884 2789 2986 3280 3355 3676 3685 3761 3652 3597 3480 3430 3206 2837 2957 2650 2202 2175 2015 1859 1823 1615 1063 1353 1200 1224 1062 963 966 1054 990 844
2470 2431 2357 2348 2386 2537 2720 2711 2725 2703 2978 3058 3024 3218 3633 3762 3846 3702 3790 3679 3548 3431 3401 2967 2889 2603 2269 2219 2098 1971 1938 1768 1292 1072 1048 1237 1202 1112 809 936 801 772
2525 2453 2443 2366 2268 2308 2100 2414 2601 2724 2758 2844 2967 3244 3481 3589 3642 3680 3727 3681 3483 3385 3319 3244 2902 2595 2302 2253 2160 2045 1994 1880 1481 940 964 1135 1083 1101 892 830 745 808
2569 2555 2382 2222 2218 2234 2255 2390 2537 2641 2523 2749 2838 2929 3052 3208 3392 3629 3680 3564 3651 3657 3592 3261 2926 2624 2326 2252 2194 2102 2037 1983 1716 1288 1122 1202 1190 968 857 891 716 671
2588 2606 2475 2405 2373 2423 2492 2523 2386 2462 2488 2610 2775 2867 3086 3267 3388 3380 3522 3573 3514 3603 3582 3288 3007 2717 2366 2227 2185 2118 2063 2029 1864 1512 1329 1274 1258 1056 854 933 832 639
2588 2651 2649 2593 2566 2595 2494 2427 2369 2326 2418 2424 2721 2709 2820 3084 3132 3158 3322 3296 3303 3283 3291 3217 3028 2755 2397 2212 2162 2121 2077 2016 1924 1620 1338 1332 1116 995 844 970 896 746
2559 2625 2623 2507 2530 2513 2431 2386 2413 2432 2411 2442 2724 2689 2650 2763 2999 3070 3236 3251 3130 3226 3186 3187 3119 2826 2465 2198 2164 2138 2084 2048 1976 1738 1368 1388 1288 1151 927 1066 988 874
2327 2368 2439 2433 2404 2401 2438 2434 2445 2497 2522 2586 2631 2752 2681 2637 2925 2970 3169 3205 3098 3300 3272 3241 3161 2969 2480 2195 2166 2098 2097 2078 2007 1858 1550 1454 1382 1310 1161 1035 1125 1084
2320 2404 2421 2424 2378 2342 2286 2246 2340 2433 2397 2519 2478 2427 2653 2611 2786 2844 3188 3245 3178 3273 3420 3328 3248 2999 2636 2278 2159 2076 2038 2036 1999 1906 1721 1476 1397 1291 1201 1154 1086 1104
2437 2432 2334 2231 2215 2252 2165 2131 2118 2239 2398 2433 2376 2312 2502 2640 2697 2865 3159 3266 3169 3251 3406 3331 3252 2975 2679 2363 2264 2078 2010 1984 1938 1880 1774 1631 1443 1231 1202 1217 1092 1142
2348 2314 2265 2236 2127 2117 2126 2069 2042 2081 2230 2237 2251 2224 2312 2624 2652 2783 3020 3116 2996 3103 3250 3288 3202 3024 2730 2347 2212 2034 1982 1934 1903 1869 1795 1692 1574 1391 1194 1283 1197 1168
2361 2268 2273 2209 2119 2103 2108 2093 2077 2156 2188 2213 2188 2230 2241 2335 2614 2628 2748 2927 2926 2967 3108 3196 3192 3079 2832 2513 2179 2015 1927 1907 1891 1847 1786 1695 1610 1496 1352 1132 1235 1238
2367 2381 2369 2206 2285 2237 2224 2191 2156 2137 2170 2216 2190 2194 2180 2224 2313 2581 2660 2782 2870 2856 2879 3073 3149 2998 2893 2627 2315 2082 1937 1824 1833 1842 1794 1687 1647 1592 1498 1352 1159 1099
2411 2479 2455 2376 2320 2468 2424 2330 2246 2256 2329 2337 2320 2274 2201 2221 2228 2402 2636 2614 2779 2810 2833 2888 3050 2967 2860 2703 2409 2162 1976 1848 1728 1777 1774 1711 1648 1631 1570 1487 1353 1150
2646 2600 2594 2510 2447 2625 2595 2498 2446 2478 2506 2470 2474 2386 2270 2277 2317 2305 2552 2596 2598 2786 2790 2723 2775 2841 2760 2614 2420 2228 2106 1918 1742 1694 1712 1679 1655 1637 1589 1532 1472 1357
2611 2608 2651 2755 2652 2685 2777 2632 2527 2548 2504 2556 2579 2518 2481 2480 2467 2464 2495 2651 2656 2763 2815 2744 2653 2683 2266 1881 1857 2175 2128 1971 1830 1666 1626 1628 1631 1628 1589 1560 1565 1495
2568 2621 2695 2753 2654 2708 2701 2701 2654 2649 2634 2667 2642 2603 2570 2638 2644 2610 2559 2630 2668 2708 2808 2700 2650 2540 1895 1685 1584 1524 1885 2042 1924 1768 1643 1580 1613 1604 1593 1557 1582 1594
2504 2632 2663 2666 2733 2752 2775 2757 2670 2689 2722 2774 2784 2756 2780 2735 2770 2762 2811 2682 2655 2680 2682 2732 2688 2149 1799 1652 1573 1538 1493 1911 1969 1875 1721 1632 1584 1617 1579 1580 1632 1644
2753 2742 2718 2709 2798 2735 2788 2877 2886 2874 2899 2916 2857 2844 2874 2936 2922 2814 2814 2821 2721 2791 2689 2676 2706 2110 1781 1670 1608 1564 1550 1567 1942 1937 1813 1711 1598 1626 1600 1592 1646 1662
2806 2751 2780 2778 2822 2791 2836 2839 2825 2860 2811 2701 2743 2832 2892 2938 2823 2856 2933 2912 2850 2746 2430 2753 2819 2242 1853 1713 1634 1592 1569 1536 1792 1904 1869 1803 1743 1818 1797 1824 1845 1745
2954 2926 2976 2969 2963 2909 2848 2812 2806 2864 2844 2709 2688 2822 3008 3048 2991 2928 2914 2786 2725 2716 2738 2597 2729 2274 2021 1788 1719 1658 1611 1576 1562 1824 1826 1859 1880 1937 2014 2024 2062 1832
2889 2997 3014 3054 3008 2926 2882 2862 2910 2982 3007 2913 2785 2839 2986 3016 3043 2955 2959 2962 2842 2752 2458 2427 2470 2270 2112 1960 1822 1757 1701 1654 1626 1756 1697 1768 1898 1944 2019 2138 2032 1819
2811 2968 3019 2974 2999 2998 2983 2975 3000 3107 3106 3036 2930 2919 2940 2972 3053 2992 3058 3016 2829 2638 2745 2746 2668 2378 2257 2103 1926 1869 1823 1783 1744 1745 1773 1808 1830 2006 2016 1982 1839 1875
3089 3116 3024 3030 3062 3049 3070 3033 3069 3125 3147 3082 3036 2873 2780 2964 3023 3093 3160 3091 2848 2746 2911 2930 2927 2897 2351 2220 2092 1937 1906 1868 1864 1874 1891 1933 1911 1978 2061 1870 1911 1904
2898 3035 3049 2985 3089 3094 3007 3112 3142 3246 3207 3224 2981 2949 2955 3085 3026 3064 3170 3257 3165 2953 2635 2807 3006 3119 2423 2365 2198 2090 2024 1995 1974 1958 1964 1941 1924 1932 1908 1950 1934 1953
2958 3077 3099 2925 3030 3161 3044 3166 3286 3207 3247 3152 2964 2938 3033 3112 3052 3044 3231 3313 3118 2868 2927 2717 2874 3003 2541 2452 2335 2202 2119 2083 2072 2037 1963 1936 1918 1933 1998 1942 1964 1954
Wind_Speed
7 7 6 7 7 7 8 8 7 7 8 8 8 8 9 11 14 18 19 17 14 10 7 7 10 10 10 10 11 11 12 14 13 13 14 15 15 16 15 15 15 14
7 7 8 8 9 10 10 10 9 8 9 10 9 9 10 11 14 17 19 18 15 11 9 9 11 11 12 10 11 12 12 12 13 11 14 15 14 16 17 18 17 16
9 8 8 9 9 9 9 11 11 10 9 10 11 10 9 11 13 16 18 18 15 11 10 12 12 12 12 11 12 12 12 13 13 13 13 14 15 16 16 17 16 17
10 9 9 9 9 11 12 13 13 12 11 11 11 11 11 12 14 17 18 18 15 12 13 14 13 12 13 12 12 11 12 13 13 13 12 12 14 15 16 15 16 16
12 11 10 10 11 13 15 14 14 15 13 12 12 13 13 13 15 16 18 17 14 12 13 14 14 13 14 13 13 11 12 13 13 13 12 13 14 13 14 15 16 17
14 13 13 13 13 15 15 14 15 15 15 14 13 14 13 14 15 16 18 17 14 12 12 13 14 13 14 14 13 11 12 13 14 14 13 13 14 13 13 15 17 17
16 15 15 14 14 14 14 14 15 16 16 16 16 15 15 15 16 17 18 17 14 12 12 13 14 14 14 14 13 12 12 13 14 15 15 14 14 15 14 16 16 18
15 15 15 15 15 15 15 16 17 18 18 19 17 16 17 16 17 18 19 17 13 12 13 13 15 15 15 15 14 13 13 12 12 15 15 16 16 16 16 15 17 20
15 15 16 17 16 16 15 16 17 18 20 19 18 17 18 18 19 20 20 17 14 12 13 13 14 14 14 15 14 14 14 13 13 15 16 17 18 17 17 17 19 22
15 15 16 16 16 16 16 15 16 18 20 20 19 19 19 20 20 21 21 17 14 13 13 13 14 15 15 15 15 14 14 15 14 15 16 17 19 18 19 20 22 23
15 15 15 15 14 14 14 15 16 17 19 19 20 19 19 21 22 21 19 15 12 12 13 13 14 15 16 15 14 14 14 15 16 16 17 17 19 21 22 23 25 26
14 14 13 13 12 12 12 13 14 15 16 19 20 19 19 19 20 19 16 13 11 12 13 14 15 16 17 16 16 15 15 15 16 17 18 18 19 21 24 25 27 28
14 13 12 11 11 11 11 12 13 13 14 16 18 18 17 16 16 15 13 12 11 12 13 15 17 17 18 18 17 16 16 17 17 18 18 18 19 22 25 27 28 29
12 12 11 11 10 10 10 11 12 12 12 13 14 15 14 13 13 13 12 12 11 12 13 16 18 19 19 19 19 18 18 18 18 18 19 19 19 21 25 27 30 31
10 10 9 10 10 11 12 12 12 12 11 12 12 13 12 11 11 11 12 12 12 12 14 17 19 19 19 20 21 21 20 19 19 19 19 18 18 20 23 26 29 31
10 9 10 11 12 13 14 15 15 15 15 15 14 14 12 12 11 12 12 13 14 14 15 17 19 20 21 24 23 24 24 22 21 20 19 18 18 19 22 26 29 30
12 10 11 12 13 14 15 17 18 16 16 16 15 15 15 14 13 13 13 13 14 15 16 17 19 20 26 26 25 26 26 24 24 23 21 19 19 20 22 25 28 31
13 13 13 13 14 16 16 17 18 17 17 17 16 17 16 15 14 15 14 14 14 15 16 17 18 22 30 29 27 27 27 26 26 25 23 21 19 20 21 23 27 29
14 14 14 15 16 17 17 18 19 19 19 18 18 18 16 16 15 16 16 16 15 16 16 17 17 26 30 31 29 29 29 28 27 26 25 23 20 20 20 22 24 28
15 15 15 16 18 19 20 20 20 19 20 19 18 19 18 17 18 18 17 17 17 17 16 16 16 26 31 32 31 31 32 31 28 28 26 25 23 21 19 20 24 28
15 15 15 17 20 22 22 22 22 20 21 21 21 21 21 20 20 20 19 20 20 18 17 15 14 27 32 33 33 33 34 33 30 29 28 27 25 22 20 20 22 26
17 16 16 18 20 21 22 23 23 23 23 24 23 22 22 22 21 21 22 23 22 21 19 18 18 29 33 35 35 35 37 35 33 30 29 30 28 25 22 21 22 27
19 19 19 20 21 21 21 22 23 23 23 25 25 24 24 24 24 24 23 24 24 23 23 23 20 32 37 38 38 38 39 35 35 31 29 33 32 29 25 23 25 29
21 22 23 24 24 21 20 20 21 23 24 26 25 25 23 23 24 25 25 25 25 24 26 27 26 37 43 42 42 43 42 38 37 34 31 32 33 33 30 27 28 34
22 24 25 25 22 20 20 20 21 23 25 28 26 25 23 25 26 24 25 26 26 24 27 29 27 37 44 45 45 47 44 39 39 36 34 35 36 35 32 29 30 36
29 29 27 25 23 23 24 23 25 27 28 30 28 28 28 28 27 26 24 26 25 24 28 30 28 34 42 45 47 49 49 43 41 38 37 36 38 40 40 36 35 35
Wind_Direction
266 260 261 255 258 262 275 288 282 286 286 295 304 309 324 328 326 329 333 331 330 319 313 322 306 310 312 319 333 344 350 357 360 356 360 359 3 6 3 0 360 4
288 281 262 259 256 260 268 281 284 287 285 291 298 305 314 316 319 323 329 331 325 316 305 310 302 311 311 316 330 342 348 355 1 354 358 359 0 2 4 3 5 2
290 291 292 291 282 287 290 281 285 287 283 293 300 299 304 306 311 318 324 329 324 310 309 302 302 307 310 314 326 340 351 355 1 358 357 358 0 3 8 7 8 7
298 301 300 301 288 284 280 277 282 280 282 279 291 298 299 298 306 314 318 323 318 302 291 298 305 305 307 313 324 338 352 356 359 352 353 354 1 8 10 6 7 8
299 295 290 286 283 281 279 282 287 285 288 284 282 287 291 295 299 308 312 316 315 299 287 297 302 303 301 307 322 336 348 355 352 349 350 354 358 3 5 358 359 6
291 292 291 286 282 282 283 288 287 286 289 287 286 286 293 299 298 306 312 316 312 300 291 297 301 301 299 305 315 332 343 351 348 347 350 352 354 353 351 348 356 3
297 296 299 291 290 288 288 287 283 282 282 283 280 287 290 298 301 305 308 312 311 295 291 294 299 297 293 298 310 325 338 345 340 341 345 343 341 341 340 339 354 3
303 296 295 290 294 291 292 287 284 283 282 281 287 289 291 297 300 299 301 306 304 291 284 291 296 295 292 293 306 320 333 334 339 339 342 343 339 340 338 337 348 359
299 298 295 297 296 289 294 292 287 285 283 287 290 289 290 294 294 297 299 301 296 283 279 286 294 294 287 291 301 315 328 336 341 342 345 347 348 349 346 342 346 350
304 300 303 304 301 289 292 292 286 284 285 290 292 289 291 291 293 297 298 298 292 280 278 284 293 291 286 288 297 310 322 331 336 341 343 347 348 348 347 345 349 346
316 311 309 312 310 296 303 297 292 287 284 293 293 295 296 291 291 295 297 295 285 279 275 283 292 294 289 289 290 299 315 324 329 334 338 341 343 341 342 348 354 356
322 321 323 326 322 315 314 309 303 297 293 293 299 302 302 298 298 296 294 295 283 273 274 282 290 294 292 289 292 296 305 316 321 328 333 335 337 338 340 348 356 359
329 333 329 332 324 319 311 313 317 315 311 307 304 310 310 308 307 305 293 290 281 272 276 282 290 296 290 287 288 292 299 307 317 325 330 330 335 339 342 349 354 356
332 335 336 337 338 337 341 342 339 332 327 316 311 320 326 325 320 311 297 289 286 279 277 280 290 296 294 289 288 290 290 298 309 319 328 330 333 337 344 349 351 353
312 324 332 341 354 1 4 8 7 2 353 344 332 327 320 328 323 316 305 299 295 288 284 285 294 301 294 289 287 290 287 291 302 313 321 328 332 336 342 347 349 353
303 316 328 340 354 3 4 6 8 9 10 6 358 346 332 320 318 315 311 306 304 299 291 289 295 296 299 301 292 286 288 285 292 305 318 324 329 333 338 345 350 354
298 317 323 340 352 355 355 357 357 355 3 7 6 1 354 336 326 325 316 308 309 303 300 295 294 295 302 298 297 295 287 287 291 300 311 320 328 332 337 342 347 351
307 311 321 334 338 346 344 343 341 344 349 352 353 353 348 346 346 340 327 318 307 308 305 299 296 297 297 300 299 298 295 287 288 294 303 314 325 333 335 337 342 344
297 305 317 322 329 329 323 322 328 336 340 339 343 336 332 345 351 345 343 334 327 320 315 306 296 294 297 300 301 301 302 295 286 291 299 308 318 329 335 336 334 332
293 303 312 319 314 310 310 315 321 330 330 328 324 321 329 339 342 342 340 341 341 338 339 316 304 294 301 300 301 303 302 298 287 291 295 304 314 322 327 334 332 326
288 296 301 301 300 300 302 308 313 313 316 315 313 316 320 324 326 334 340 346 345 345 339 336 322 303 304 302 303 304 303 297 290 288 292 297 305 315 325 328 326 322
280 281 282 284 289 292 296 301 302 305 306 302 302 304 306 307 310 318 325 327 329 339 338 338 332 313 312 309 305 303 301 288 290 292 295 295 298 307 316 317 318 316
272 274 276 279 281 285 292 296 297 298 295 290 295 298 299 304 308 310 308 310 319 328 329 319 320 310 314 312 309 307 295 288 291 295 299 294 294 299 307 311 311 311
272 274 276 277 277 285 290 289 289 284 288 287 292 294 296 300 297 295 297 298 307 316 314 311 310 302 312 310 312 310 304 295 294 297 304 300 295 297 297 302 306 309
261 263 264 269 273 277 277 277 278 280 278 276 281 283 287 284 284 287 286 288 294 300 302 301 298 296 307 306 309 307 304 297 297 298 306 301 299 299 299 300 301 304
257 258 264 272 275 272 273 275 274 276 281 282 285 284 283 283 285 287 289 282 284 291 285 287 296 286 294 302 304 304 308 297 293 300 306 305 300 295 294 296 298 301